User: anonymous   Login
Location: Stonelick Lake State Park
(39.2170°N, 84.0850°W)
Time: 13:56:31
(UTC-04:00)
Language:

Abrixas rocket - Orbit

View from above orbital plane
View from above orbital plane
View from above satellite
View from above satellite

Ground track
Ground track

The orbit data is extracted from the following two-line orbital elements,

1 25723U 99022C   15210.18778317  .00006251  00000-0  15449-3 0  9992
2 25723 048.4189 210.0331 0014707 337.5452 116.8183 15.41609684899720
Epoch (UTC): 29 July 2015 04:30:24
Eccentricity: 0.0014707
inclination: 48.4189°
perigee height: 431 km
apogee height: 451 km
right ascension of ascending node: 210.0331°
argument of perigee: 337.5452°
revolutions per day: 15.41609684
mean anomaly at epoch: 116.8183°
orbit number at epoch: 89972

The dashed part of the orbit path shows where the satellite is in the earth's shadow,  

DLR